Theta_e
336 332 322 311 302 299 294 296 301 301 302 305 308 310 310 311 310 302 323 333 340 341 344 344 346 346 345 344 344 343 343 341 341 341 346 344 342 340 339 338 339 338 338 338 337 337 338 337 338
332 330 313 306 297 292 293 299 301 302 306 307 310 312 311 312 319 321 326 337 340 341 343 342 343 345 345 344 343 342 339 339 342 339 342 345 342 339 338 338 339 338 338 338 337 337 337 337 337
330 323 307 301 295 293 295 301 303 306 308 307 306 312 314 313 319 322 329 338 340 341 342 340 342 344 345 343 342 341 338 339 338 339 341 343 342 339 339 339 338 337 336 337 336 336 336 336 336
323 315 309 298 295 298 300 304 307 306 307 309 309 309 316 323 324 326 335 338 337 339 341 340 343 345 344 343 342 341 340 340 339 338 340 343 342 342 341 337 339 337 336 336 336 335 335 334 335
317 309 301 298 295 300 302 306 307 306 306 306 307 308 312 323 327 328 334 335 335 337 340 340 342 343 343 343 343 342 341 340 340 339 337 338 341 341 340 340 337 336 335 335 335 334 333 333 333
310 308 299 296 297 300 303 306 307 306 307 307 307 311 311 323 324 325 327 332 337 337 339 340 337 339 341 342 342 342 342 341 340 338 338 336 339 340 341 340 338 335 334 334 334 333 332 332 331
308 303 298 297 301 299 302 306 305 305 306 306 311 309 312 317 324 326 324 333 336 338 338 338 338 337 335 338 338 340 341 340 339 338 337 336 335 338 339 338 338 337 334 333 334 333 332 330 329
309 305 299 298 300 301 301 304 306 307 307 312 312 308 310 319 325 326 323 329 332 336 337 337 336 336 335 335 333 335 337 337 336 335 332 330 330 332 332 331 336 337 335 334 333 332 331 330 328
312 300 297 299 301 303 302 301 305 306 308 309 314 313 317 324 324 321 319 319 328 333 335 336 336 335 333 332 331 331 332 332 331 330 327 324 324 326 327 326 330 336 336 335 333 332 331 330 327
305 298 300 305 305 304 304 302 303 303 302 303 313 320 323 323 321 319 317 315 320 328 330 334 335 335 333 333 330 331 334 332 329 326 324 324 322 323 324 322 326 329 331 334 334 332 331 326 318
306 299 304 306 309 309 307 306 307 304 302 303 305 317 320 319 319 319 318 318 319 323 329 333 334 334 332 332 331 329 329 328 327 324 323 323 323 321 321 320 321 324 322 325 329 328 323 318 316
301 305 305 306 307 308 305 308 306 305 307 311 310 319 320 319 319 319 319 319 319 318 323 328 333 334 333 332 330 329 327 326 325 325 323 322 321 320 319 320 319 320 321 320 321 321 321 318 317
299 301 304 306 306 304 308 306 305 305 309 310 311 317 319 320 320 321 322 321 321 318 321 323 330 332 333 330 330 328 327 326 326 324 323 322 321 320 321 321 320 319 320 320 317 316 317 317 316
303 303 304 305 305 304 304 303 304 305 308 309 310 309 316 319 319 321 320 321 320 322 320 323 323 332 331 331 329 328 328 327 325 325 324 323 322 320 321 321 321 321 321 321 320 317 315 314 315
305 300 302 302 303 302 304 299 301 305 304 306 306 307 307 309 316 318 321 322 323 322 322 322 323 326 330 330 328 329 328 328 327 326 325 324 323 322 321 321 320 321 321 319 319 317 316 315 315
299 298 291 299 302 303 302 292 300 305 302 303 303 303 304 306 308 312 320 321 323 324 321 321 324 322 328 330 329 329 328 327 327 326 326 325 324 323 322 321 320 320 320 319 317 317 316 315 315
293 287 291 295 301 299 299 293 301 304 301 301 300 302 303 303 305 307 310 314 319 323 323 320 322 322 322 329 330 329 328 326 326 326 325 325 325 325 324 322 321 320 319 317 316 315 316 313 312
290 288 291 291 296 297 295 295 300 303 302 301 300 301 301 303 305 309 309 310 311 316 322 322 321 322 322 324 328 328 326 326 325 325 325 325 325 325 324 323 322 320 319 317 315 315 313 312 313
294 292 291 292 297 294 294 293 296 302 300 299 298 299 300 303 307 307 309 310 310 310 317 321 319 321 322 321 321 323 322 324 324 325 325 324 324 324 323 323 320 320 320 319 317 315 312 312 311
295 290 289 294 296 294 292 292 295 297 297 298 299 299 301 303 304 306 306 307 308 310 312 321 321 321 322 323 322 322 324 325 325 324 324 324 324 324 323 323 321 319 320 319 316 315 312 312 311
293 291 289 291 293 293 290 289 290 294 295 297 298 300 302 302 303 304 304 306 306 307 309 316 322 322 321 323 322 320 319 318 319 321 322 323 324 324 323 323 322 320 319 318 317 316 314 312 310
289 295 295 293 288 283 290 280 286 291 293 294 295 294 297 300 302 304 303 304 304 306 306 309 319 322 322 323 322 321 320 318 321 322 323 323 323 324 323 323 322 320 320 318 318 317 315 314 310
292 296 294 293 289 285 283 282 284 288 288 291 293 295 295 297 300 301 302 303 303 305 305 307 309 317 322 322 322 321 320 321 322 321 321 322 323 323 324 323 322 321 320 319 319 317 315 314 313
297 295 292 291 287 282 284 283 280 285 288 290 293 297 299 300 298 298 299 300 299 298 299 300 307 311 317 321 322 321 321 321 320 320 320 321 321 322 323 324 323 322 321 319 319 319 318 316 314
295 291 277 275 280 278 284 283 286 289 293 292 295 296 297 298 294 296 297 298 298 298 299 299 300 301 306 315 320 322 322 322 321 321 321 320 320 320 321 322 323 323 323 321 320 319 320 319 317
289 290 277 271 274 277 284 280 285 293 295 296 295 296 295 292 295 296 296 297 298 300 300 299 299 300 301 303 311 320 323 323 323 323 323 322 322 321 322 321 322 322 323 323 322 320 320 321 320
289 286 289 281 277 277 280 284 290 294 294 295 295 295 293 293 295 298 298 299 299 300 300 299 299 299 300 300 301 307 318 322 324 324 324 323 324 323 323 322 321 322 322 323 323 321 320 319 320
292 293 285 281 273 273 277 279 283 288 290 294 293 296 295 294 296 298 299 299 299 299 299 300 301 301 300 300 300 301 304 311 320 323 324 324 325 324 323 322 322 322 322 322 323 322 322 320 320
288 287 288 286 281 276 273 277 286 290 292 290 292 295 294 295 297 297 297 296 296 295 295 296 298 299 299 300 299 298 300 302 306 311 319 324 324 324 324 322 322 322 322 323 322 322 322 320 319
292 290 289 283 278 279 280 279 290 290 292 292 292 294 296 296 296 294 293 293 292 292 293 293 294 295 296 296 296 297 298 300 301 304 309 315 322 324 323 322 323 322 321 322 321 321 321 321 319
Wind_Speed
12 12 2 5 6 6 1 2 2 2 3 1 2 10 7 3 1 3 0 9 13 12 10 11 14 14 13 14 13 13 13 14 13 13 17 19 18 17 16 16 15 15 15 16 16 16 16 15 15
11 6 5 3 7 4 3 1 5 2 2 3 8 4 4 2 2 6 5 9 15 11 9 10 14 15 14 12 12 12 13 14 11 13 13 18 18 16 15 17 13 14 15 15 15 14 14 14 14
10 1 4 5 4 4 4 2 5 1 2 2 4 5 4 2 1 8 8 12 12 11 9 10 12 16 16 14 14 12 14 13 13 12 12 14 17 16 13 17 12 14 14 14 13 13 12 12 12
6 6 5 6 4 2 7 6 5 4 2 2 3 6 3 2 6 5 15 13 11 9 9 10 14 14 15 15 13 12 12 12 13 14 11 14 12 14 14 12 14 12 12 13 13 11 10 9 10
4 4 5 3 1 0 2 5 7 5 4 1 2 3 2 4 1 15 14 13 13 8 8 10 13 15 14 14 14 14 14 12 10 11 13 11 13 12 16 14 11 10 11 12 11 9 8 7 8
5 3 5 2 4 2 2 6 6 5 5 4 6 5 2 3 6 7 9 10 13 13 11 10 11 10 13 13 11 11 12 15 12 9 10 13 12 10 15 16 13 11 12 11 9 8 6 5 6
4 3 2 2 3 2 2 2 6 5 4 1 6 4 2 2 5 6 8 8 9 11 10 9 10 11 13 13 12 11 11 13 14 12 9 8 10 10 13 15 16 13 11 12 10 7 6 4 3
5 4 2 1 2 4 2 2 5 5 2 1 4 5 5 7 9 7 7 7 7 8 9 9 7 7 7 8 12 12 12 12 12 11 10 7 5 5 6 10 12 14 13 10 10 8 6 4 3
3 4 2 3 2 6 2 1 2 1 5 2 3 3 3 12 8 7 5 4 5 6 8 8 8 7 6 6 8 11 13 13 13 12 12 8 4 5 6 6 9 13 14 13 11 9 8 5 4
4 4 9 5 1 3 1 2 2 2 2 1 4 5 6 9 7 9 7 8 6 10 8 9 8 8 7 7 6 5 7 7 7 8 8 6 6 5 5 6 10 9 9 12 12 10 8 6 2
4 5 4 2 3 3 3 2 4 5 1 4 5 7 6 4 7 8 7 8 12 8 7 10 10 9 9 7 5 3 3 3 4 7 7 6 5 4 3 3 4 5 7 3 5 6 4 5 4
3 4 2 1 4 3 2 2 4 2 5 4 3 12 9 10 10 10 11 11 9 9 11 10 10 11 10 6 6 6 5 4 4 7 8 5 4 5 4 4 5 4 4 5 5 3 5 6 6
3 3 2 2 2 4 3 5 5 6 9 6 3 8 11 11 12 11 13 9 9 13 13 13 11 12 11 9 7 7 7 6 7 6 8 5 5 6 5 5 5 5 4 5 5 5 5 5 6
1 2 0 2 3 3 3 4 3 6 5 6 6 6 9 12 14 11 8 13 13 15 15 14 15 14 10 11 10 8 8 8 7 7 8 9 6 5 6 7 7 6 6 6 6 6 5 5 5
2 3 4 2 2 3 1 8 8 7 1 8 10 10 8 11 10 13 16 16 17 16 16 16 17 15 15 14 10 8 8 8 8 8 9 10 8 8 9 7 7 7 6 6 5 5 4 4 4
3 4 2 4 4 6 7 9 6 10 4 10 10 9 9 13 11 12 16 15 14 14 15 16 15 16 16 15 12 10 8 8 8 8 8 11 11 10 9 8 7 6 5 6 5 6 5 6 5
2 3 7 7 5 4 8 3 8 11 6 9 9 9 8 9 10 10 11 13 15 15 15 15 15 16 17 16 12 12 12 9 8 8 9 11 13 11 10 8 7 7 6 6 6 5 6 5 4
7 4 4 6 4 6 7 9 9 8 6 9 9 9 9 10 13 9 9 8 9 9 14 15 14 17 16 11 10 8 8 9 9 10 10 12 10 11 10 8 7 7 6 7 5 8 6 4 6
5 4 7 4 6 3 8 10 12 12 8 9 8 10 11 14 13 8 8 9 8 7 8 12 14 16 11 10 10 9 10 10 9 11 13 12 12 12 12 9 7 7 9 10 10 7 7 8 4
9 3 4 7 7 1 7 12 11 9 7 9 11 12 17 16 13 12 9 7 7 9 10 11 15 14 14 11 10 9 10 10 9 7 10 13 13 13 13 13 10 10 9 10 9 10 5 7 6
7 12 4 6 6 3 7 13 7 7 5 7 10 13 14 17 16 14 9 10 8 8 9 11 14 13 14 16 7 3 2 2 4 7 9 12 13 13 15 14 12 11 11 11 11 11 13 10 5
15 5 7 6 1 5 4 10 5 6 10 8 12 8 13 15 12 12 9 8 8 8 5 7 9 11 12 14 11 13 13 12 12 11 10 10 13 14 14 16 15 14 11 14 12 11 12 11 10
6 6 10 7 2 4 2 5 6 4 5 11 10 9 11 12 9 9 7 7 0 3 3 2 6 6 9 9 14 12 13 11 9 8 10 12 11 14 15 14 16 15 12 14 15 13 14 12 12
5 4 2 4 2 9 8 6 5 6 6 5 7 7 6 4 2 1 4 7 4 3 5 6 5 3 6 7 12 14 15 14 9 9 9 10 9 10 14 16 14 15 15 16 15 15 16 15 13
8 8 1 2 5 9 3 8 14 4 13 8 8 7 6 2 7 7 6 6 6 8 7 6 7 6 5 5 7 12 14 13 14 13 10 11 9 9 13 17 17 14 16 17 15 15 16 15 16
9 11 7 9 5 4 4 10 9 11 10 11 9 7 4 5 6 6 6 4 5 7 8 7 7 7 7 5 6 8 12 10 11 13 11 10 11 11 14 14 16 17 17 16 16 13 13 16 14
7 12 8 3 2 1 6 8 9 11 11 9 6 6 7 7 6 7 6 6 7 8 8 7 7 6 7 8 6 6 7 11 13 15 13 11 13 10 12 14 15 17 18 17 17 14 16 16 15
8 9 7 1 6 6 6 6 11 6 5 9 5 8 7 4 4 7 7 7 7 7 7 9 9 8 7 7 6 6 6 7 9 11 15 14 14 14 12 13 15 16 17 17 17 15 16 16 14
6 6 5 5 6 6 2 7 9 13 11 9 7 7 9 6 6 6 6 6 5 5 7 7 8 9 10 10 9 7 7 7 7 9 12 13 14 13 13 13 14 16 17 16 16 17 17 18 17
13 16 15 7 7 4 2 9 3 4 4 6 7 7 7 7 7 5 6 6 7 7 8 8 7 8 8 11 9 9 9 8 8 9 10 10 12 13 13 12 15 16 16 16 17 18 16 18 18
Wind_Direction
321 316 72 40 56 65 45 56 100 105 45 253 90 98 118 57 97 199 227 158 140 144 147 138 131 129 130 131 128 131 130 131 127 120 116 117 111 110 111 111 106 102 101 101 101 103 99 92 80
317 325 37 75 83 76 308 31 101 142 183 143 90 108 66 110 137 115 93 161 147 144 144 140 137 136 136 132 134 133 131 135 131 127 117 121 118 115 116 110 107 110 106 105 106 108 104 90 82
314 82 68 75 109 146 154 196 155 182 54 58 98 53 110 154 101 159 146 155 139 143 145 144 144 147 146 147 144 149 140 138 142 134 126 117 122 119 124 117 117 114 115 114 112 112 109 99 88
347 6 30 80 94 3 151 181 167 124 25 57 106 68 36 296 166 159 142 143 141 144 143 155 152 152 148 149 148 143 144 149 148 150 141 139 121 129 125 120 120 121 119 119 118 119 114 97 85
22 53 43 50 60 148 143 181 156 140 156 114 107 162 62 330 16 132 150 147 146 144 151 159 160 156 156 156 154 155 156 150 160 155 155 147 137 142 137 131 128 127 125 124 125 127 122 106 87
15 78 55 42 321 286 264 168 150 151 173 157 86 101 204 311 127 139 142 152 149 152 161 165 162 161 159 162 163 166 172 159 153 158 164 162 148 155 149 138 137 147 141 136 139 140 132 113 97
93 66 196 147 273 250 224 146 139 154 141 148 144 102 187 205 199 140 131 135 150 151 158 166 171 170 169 167 167 170 161 160 156 156 172 187 169 168 142 147 149 154 158 151 151 154 150 137 98
104 89 317 267 186 283 270 73 133 126 184 188 129 170 207 204 183 141 124 131 139 158 166 170 174 175 172 176 173 174 168 164 162 162 164 183 216 154 162 146 151 155 158 159 162 164 168 171 155
93 76 230 256 48 288 329 59 0 226 113 93 30 139 207 142 146 124 123 124 153 174 180 179 177 179 174 175 185 181 176 172 170 168 172 172 188 201 184 172 173 167 162 164 170 177 181 185 218
105 146 209 191 169 331 229 138 198 93 99 102 43 20 81 131 161 165 168 176 183 185 189 186 187 186 180 180 182 188 187 183 180 174 176 172 186 192 200 184 172 197 162 166 173 181 187 192 229
171 206 216 128 43 26 359 15 317 130 231 202 173 172 157 153 179 190 192 189 189 190 193 191 188 190 188 195 181 178 174 180 186 184 181 182 181 208 201 191 192 186 181 190 174 179 186 198 212
173 205 227 296 30 319 266 300 330 261 230 75 58 173 166 178 195 199 208 200 187 196 198 190 189 192 195 194 190 186 183 182 189 199 196 183 182 191 209 198 196 186 176 187 188 191 199 206 216
193 245 237 258 0 298 253 236 236 252 269 294 235 157 188 197 208 211 209 209 207 207 199 198 190 196 198 192 190 191 197 195 199 195 203 195 193 199 190 212 199 196 182 191 202 198 202 211 209
210 239 217 59 332 258 240 242 180 245 232 276 312 206 216 210 213 215 205 215 206 215 210 195 197 199 193 200 192 194 194 198 198 205 208 204 196 192 205 201 205 207 199 197 201 211 207 213 205
186 281 351 219 173 284 75 297 209 247 343 279 276 278 252 227 231 220 218 214 210 214 212 202 201 195 195 200 199 196 198 195 203 210 210 210 196 196 197 205 209 205 209 205 205 221 221 213 224
118 67 319 283 179 243 151 251 260 272 235 266 269 269 264 268 226 232 228 220 216 214 205 205 204 196 200 201 198 203 196 197 206 208 208 215 208 195 200 205 215 205 195 202 204 210 226 239 213
313 191 225 309 230 234 185 267 240 252 187 239 262 271 274 281 283 248 228 230 223 212 208 204 202 202 200 205 203 203 201 198 201 206 208 210 214 204 204 211 209 193 203 208 205 206 213 214 225
203 187 223 215 266 191 242 263 269 271 260 232 244 273 276 269 259 264 262 244 226 216 212 205 198 205 200 200 207 205 206 206 203 206 208 207 207 208 211 213 210 191 208 216 209 216 205 198 212
155 187 230 266 241 259 256 256 259 257 257 262 269 265 269 264 264 247 247 242 256 228 208 211 194 204 190 194 196 206 211 213 216 215 211 203 203 200 203 212 206 197 210 216 212 213 208 225 188
232 209 255 286 283 257 282 278 251 248 232 234 246 257 259 263 266 268 265 264 242 239 220 208 209 200 198 198 206 205 208 222 216 214 217 213 205 203 205 211 208 202 214 217 210 210 214 229 178
233 224 191 236 319 290 314 282 222 245 250 256 254 250 261 254 259 258 247 250 254 247 230 215 215 209 204 209 198 186 117 115 189 215 220 220 214 209 207 212 216 213 207 216 213 211 214 227 217
230 195 218 246 247 251 30 288 247 241 270 264 257 265 258 258 249 248 233 241 244 259 275 228 232 212 205 204 198 201 207 209 221 220 222 221 214 218 214 213 211 210 211 220 218 210 215 215 221
220 167 205 221 189 350 181 279 273 277 263 259 259 264 265 251 239 242 247 243 266 56 36 309 247 220 216 208 210 205 215 221 226 217 218 215 215 216 218 216 216 216 213 219 221 216 209 210 221
158 124 113 59 107 254 222 188 239 228 221 248 272 225 288 19 18 153 100 87 77 48 42 40 40 267 238 212 219 217 220 219 216 218 216 221 216 215 220 222 220 223 224 220 217 217 217 215 218
208 143 128 304 212 238 247 197 253 263 260 232 262 247 307 94 99 104 88 54 39 26 21 17 22 360 342 260 228 227 229 231 228 224 220 222 220 214 218 221 222 225 227 228 226 219 216 217 219
199 185 162 199 203 235 143 226 253 236 259 259 251 250 190 171 137 117 93 68 32 17 17 12 6 344 342 333 280 248 237 234 231 234 233 230 227 222 219 219 225 228 229 227 228 229 225 221 223
177 200 174 117 349 108 222 284 292 255 256 262 278 154 180 186 138 89 73 39 32 22 14 7 353 332 324 315 311 289 268 243 242 240 237 234 233 230 220 216 218 224 229 227 224 225 227 227 225
186 157 175 209 177 235 258 264 240 309 262 254 251 198 194 174 113 80 55 43 31 27 10 6 359 343 329 325 310 301 295 285 272 255 247 239 238 235 228 218 218 218 223 225 225 227 228 228 228
162 200 209 163 164 193 239 255 216 235 252 240 250 198 156 137 81 75 68 44 36 24 15 6 0 348 342 339 332 315 302 287 276 272 266 253 247 238 231 223 219 219 222 221 226 228 230 229 229
212 212 199 199 219 225 179 257 281 184 70 74 96 134 108 109 103 75 56 37 23 10 12 5 353 346 341 330 324 318 310 306 301 290 277 272 262 244 233 221 225 225 223 222 225 229 230 233 234